Total_Precipitation_Accumulation
0.01 0.08 0.21 0.28 0.52 1.10 1.14 0.79 0.43 0.27 0.26 0.33 0.37 0.35 0.45 0.52 0.56 0.90 0.42 0.15 0.05 0.03 0.05 0.10 0.13 0.12 0.13 0.17 0.18 0.20 0.20 0.18 0.19 0.17 0.19 0.22 0.22 0.19 0.21 0.24 0.26 0.27 0.26 0.26 0.29 0.32 0.28 0.22 0.20
0.02 0.08 0.21 0.29 0.76 1.38 1.10 0.74 0.39 0.28 0.23 0.35 0.46 0.40 0.53 0.47 0.22 0.19 0.22 0.16 0.07 0.04 0.04 0.05 0.09 0.12 0.12 0.13 0.16 0.20 0.21 0.20 0.20 0.19 0.21 0.24 0.24 0.21 0.21 0.22 0.22 0.21 0.21 0.22 0.25 0.25 0.20 0.18 0.18
0.01 0.06 0.17 0.29 0.78 0.98 0.76 0.50 0.27 0.25 0.18 0.24 0.37 0.32 0.43 0.52 0.30 0.22 0.22 0.19 0.12 0.08 0.07 0.08 0.09 0.10 0.12 0.13 0.14 0.20 0.22 0.21 0.22 0.24 0.25 0.24 0.27 0.24 0.23 0.22 0.21 0.20 0.20 0.20 0.20 0.19 0.16 0.15 0.18
0.01 0.04 0.12 0.26 0.50 0.54 0.40 0.33 0.24 0.22 0.21 0.21 0.31 0.41 0.53 0.41 0.35 0.35 0.30 0.28 0.19 0.13 0.09 0.09 0.13 0.14 0.14 0.13 0.13 0.17 0.22 0.22 0.22 0.24 0.28 0.28 0.32 0.33 0.27 0.22 0.21 0.21 0.18 0.17 0.16 0.15 0.16 0.17 0.19
0.00 0.03 0.12 0.23 0.30 0.34 0.32 0.29 0.22 0.22 0.21 0.28 0.39 0.67 0.86 0.58 0.42 0.40 0.39 0.38 0.31 0.19 0.14 0.13 0.16 0.17 0.17 0.16 0.17 0.18 0.19 0.19 0.18 0.19 0.20 0.24 0.28 0.34 0.30 0.25 0.24 0.22 0.19 0.17 0.16 0.16 0.18 0.19 0.20
0.00 0.02 0.08 0.12 0.17 0.21 0.24 0.22 0.22 0.19 0.22 0.34 0.54 0.80 0.84 0.66 0.63 0.65 0.68 0.58 0.56 0.40 0.27 0.23 0.24 0.22 0.20 0.18 0.20 0.20 0.19 0.16 0.16 0.16 0.17 0.22 0.23 0.25 0.29 0.27 0.25 0.23 0.20 0.18 0.16 0.17 0.19 0.21 0.23
0.00 0.01 0.03 0.05 0.09 0.11 0.16 0.16 0.17 0.20 0.28 0.39 0.60 0.95 0.94 0.91 0.91 0.86 1.01 1.09 0.89 0.63 0.47 0.39 0.31 0.25 0.25 0.25 0.24 0.22 0.20 0.19 0.17 0.18 0.20 0.27 0.29 0.30 0.32 0.29 0.27 0.27 0.26 0.22 0.17 0.17 0.20 0.22 0.23
0.00 0.01 0.02 0.02 0.04 0.08 0.10 0.13 0.14 0.20 0.33 0.40 0.56 0.98 1.18 1.00 1.05 1.09 1.26 1.37 1.29 0.87 0.68 0.54 0.51 0.47 0.39 0.32 0.30 0.31 0.28 0.27 0.25 0.24 0.29 0.33 0.34 0.33 0.36 0.32 0.32 0.34 0.35 0.32 0.29 0.24 0.23 0.24 0.24
0.00 0.01 0.01 0.02 0.03 0.05 0.05 0.11 0.16 0.15 0.19 0.36 0.54 0.83 0.90 0.83 0.94 1.06 1.25 1.40 1.57 1.37 0.97 0.78 0.70 0.67 0.63 0.53 0.46 0.48 0.46 0.43 0.38 0.41 0.44 0.49 0.57 0.56 0.65 0.56 0.58 0.55 0.57 0.56 0.54 0.47 0.41 0.37 0.33
0.00 0.00 0.01 0.01 0.02 0.03 0.05 0.09 0.15 0.13 0.29 0.55 0.68 0.81 0.73 0.84 0.93 1.13 1.26 1.31 1.47 1.56 1.13 0.99 0.83 0.73 0.73 0.83 0.95 0.88 0.77 0.74 0.72 0.80 0.85 1.02 1.10 1.06 0.85 0.87 1.02 1.10 1.23 1.16 1.09 1.02 0.80 0.68 0.61
0.00 0.01 0.01 0.01 0.01 0.02 0.06 0.05 0.11 0.14 0.40 0.90 1.08 1.10 1.00 0.95 1.08 1.31 1.52 1.55 1.43 1.50 1.24 1.12 1.10 1.05 0.95 1.07 1.21 1.20 1.13 1.14 1.07 1.08 1.21 1.33 1.23 1.15 1.08 1.13 1.31 1.42 1.56 1.54 1.69 1.72 1.43 1.39 1.39
0.00 0.00 0.01 0.01 0.01 0.02 0.04 0.05 0.10 0.19 0.47 0.76 1.05 1.03 1.16 1.11 1.19 1.42 1.72 1.87 1.86 1.96 1.67 1.50 1.52 1.37 1.27 1.25 1.36 1.37 1.35 1.26 1.21 1.29 1.32 1.50 1.58 1.52 1.50 1.58 1.59 1.67 1.85 2.18 2.03 2.17 2.07 1.93 1.80
0.00 0.00 0.00 0.01 0.01 0.02 0.05 0.11 0.12 0.22 0.35 0.55 0.79 0.81 0.86 1.15 1.50 1.85 2.21 2.20 2.34 2.49 2.40 2.10 1.85 1.65 1.59 1.69 1.65 1.58 1.57 1.52 1.56 1.67 1.67 1.73 1.90 1.90 1.94 1.88 1.88 1.75 1.94 2.27 2.37 2.25 2.46 2.47 2.25
0.00 0.00 0.00 0.01 0.01 0.03 0.05 0.13 0.19 0.31 0.38 0.46 0.73 0.97 1.01 1.34 1.63 2.16 2.82 2.73 2.52 2.69 2.77 2.55 2.31 2.13 2.09 2.20 2.23 2.08 1.90 1.98 2.04 2.01 1.91 1.94 2.15 2.35 2.39 2.23 2.16 2.01 2.03 2.22 2.35 2.38 2.85 2.71 2.54
0.00 0.00 0.02 0.04 0.06 0.08 0.12 0.27 0.40 0.45 0.42 0.50 0.80 1.13 1.34 1.52 1.85 2.18 2.55 2.85 2.98 3.05 2.96 2.90 2.82 2.70 2.71 2.66 2.60 2.40 2.32 2.16 2.14 2.20 2.26 2.22 2.23 2.46 2.52 2.49 2.34 2.25 2.22 2.36 2.39 2.58 2.82 2.54 2.41
0.01 0.02 0.05 0.08 0.09 0.11 0.17 0.48 0.49 0.41 0.42 0.74 0.94 1.30 1.57 1.68 1.95 2.35 2.67 3.15 3.37 3.40 3.35 3.30 3.16 3.15 3.12 3.07 2.93 2.77 2.63 2.34 2.13 2.12 2.28 2.31 2.33 2.48 2.55 2.37 2.25 2.45 2.54 2.61 2.73 2.80 2.82 2.68 2.59
0.03 0.04 0.07 0.10 0.11 0.11 0.18 0.38 0.49 0.44 0.58 0.86 1.12 1.45 1.75 2.03 2.49 2.94 3.15 3.27 3.61 3.89 3.99 3.93 3.86 3.63 3.40 3.33 3.29 3.29 3.18 2.83 2.48 2.37 2.36 2.37 2.26 2.29 2.44 2.30 2.36 2.53 2.62 2.64 2.42 2.78 2.76 2.76 2.69
0.04 0.05 0.10 0.13 0.13 0.14 0.22 0.36 0.47 0.51 0.67 1.01 1.41 1.70 1.96 2.36 2.86 3.18 3.42 3.74 3.89 4.10 4.44 4.29 4.14 4.11 4.04 3.94 3.69 3.66 3.39 3.05 2.89 2.76 2.70 2.52 2.37 2.36 2.50 2.36 2.44 2.54 2.63 2.62 2.62 2.79 2.78 2.63 2.62
0.05 0.07 0.11 0.15 0.14 0.17 0.32 0.50 0.52 0.66 0.91 1.13 1.43 1.72 2.01 2.29 2.72 3.15 3.23 3.45 3.74 4.24 4.53 4.61 4.73 4.65 4.42 4.03 3.61 3.41 3.28 3.19 3.03 2.79 2.55 2.45 2.39 2.45 2.63 2.51 2.65 2.61 2.47 2.45 2.60 2.76 2.59 2.36 2.51
0.06 0.09 0.13 0.15 0.13 0.15 0.30 0.48 0.58 0.90 1.15 1.17 1.25 1.40 1.62 2.07 2.49 2.80 2.88 2.90 3.27 3.85 4.25 4.37 4.13 4.00 3.91 3.66 3.49 3.45 3.60 3.31 2.99 2.78 2.52 2.32 2.30 2.35 2.29 2.39 2.30 2.33 2.42 2.42 2.47 2.63 2.45 2.08 2.24
0.05 0.06 0.11 0.16 0.15 0.19 0.30 0.59 0.77 1.01 1.12 1.16 1.21 1.31 1.45 1.80 2.16 2.45 2.47 2.56 2.78 2.88 3.12 3.28 3.41 3.28 3.15 3.07 3.07 3.14 3.31 3.04 2.73 2.55 2.40 2.18 2.04 2.00 2.02 2.01 2.11 2.35 2.39 2.36 2.41 2.41 2.27 1.97 1.93
0.06 0.07 0.06 0.08 0.15 0.26 0.38 0.90 1.12 1.04 1.09 1.22 1.22 1.22 1.44 1.77 1.75 1.85 1.99 2.16 2.38 2.44 2.59 2.66 2.70 2.79 2.74 2.73 2.66 2.55 2.46 2.33 2.19 2.18 2.13 2.09 1.99 1.88 1.82 1.82 1.88 1.93 1.94 2.01 1.86 1.97 2.11 2.11 1.91
0.05 0.05 0.06 0.09 0.18 0.28 0.39 0.70 1.08 1.38 1.43 1.21 1.13 1.07 1.26 1.39 1.29 1.33 1.50 1.61 1.75 1.83 2.03 2.18 2.28 2.36 2.42 2.41 2.31 2.29 2.13 2.09 2.08 2.02 1.97 1.89 1.81 1.78 1.72 1.64 1.61 1.52 1.52 1.65 1.66 1.78 1.82 1.82 1.80
0.04 0.06 0.12 0.23 0.41 0.64 0.53 0.65 1.04 1.37 1.59 1.27 1.10 1.03 1.13 1.09 1.06 1.20 1.29 1.33 1.44 1.60 1.75 1.89 2.00 2.03 2.09 2.13 2.10 2.05 1.99 1.98 1.92 1.84 1.78 1.73 1.71 1.60 1.51 1.46 1.48 1.41 1.40 1.48 1.54 1.62 1.59 1.63 1.70
0.06 0.13 0.45 0.81 1.09 1.11 0.71 0.74 1.09 1.09 1.07 1.05 1.00 1.05 1.06 0.97 0.90 0.90 0.96 1.07 1.21 1.36 1.43 1.53 1.64 1.68 1.64 1.67 1.70 1.68 1.73 1.75 1.62 1.54 1.52 1.47 1.34 1.24 1.18 1.14 1.25 1.27 1.34 1.36 1.36 1.42 1.50 1.59 1.66
0.10 0.15 0.50 0.76 0.81 0.91 0.79 1.06 1.38 1.08 0.97 0.90 0.94 1.01 0.99 0.84 0.75 0.73 0.75 0.81 0.90 1.00 1.12 1.22 1.33 1.37 1.41 1.44 1.43 1.39 1.39 1.36 1.25 1.32 1.29 1.21 1.04 0.96 1.02 1.13 1.20 1.25 1.29 1.25 1.29 1.26 1.29 1.42 1.53
0.15 0.17 0.23 0.43 0.48 0.68 0.87 1.15 1.29 0.97 0.91 0.97 1.07 1.08 1.01 0.79 0.62 0.58 0.61 0.66 0.67 0.68 0.77 0.89 1.07 1.15 1.20 1.24 1.22 1.15 1.15 1.16 1.12 1.17 1.24 1.16 1.10 0.99 1.00 1.05 1.12 1.20 1.31 1.31 1.30 1.26 1.32 1.47 1.51
0.15 0.15 0.19 0.36 0.51 0.71 0.81 1.16 1.39 1.24 1.18 1.13 1.19 1.03 0.75 0.58 0.48 0.44 0.45 0.47 0.49 0.51 0.61 0.72 0.85 0.91 0.97 1.05 1.04 0.90 0.99 1.09 1.08 1.09 1.09 1.09 1.06 1.02 0.99 1.01 1.04 1.04 1.08 1.14 1.16 1.18 1.27 1.44 1.47
0.19 0.21 0.28 0.39 0.42 0.62 0.92 1.11 1.02 1.00 1.02 1.09 1.07 0.86 0.60 0.47 0.38 0.37 0.39 0.43 0.44 0.46 0.56 0.67 0.81 0.90 0.93 0.98 1.03 0.95 0.92 0.99 1.01 0.99 0.96 0.99 0.97 0.96 0.94 0.93 0.89 0.85 0.82 0.85 0.94 1.02 1.15 1.20 1.21
0.17 0.19 0.28 0.42 0.40 0.44 0.64 0.80 0.55 0.57 0.63 0.65 0.66 0.57 0.47 0.45 0.38 0.38 0.41 0.44 0.45 0.50 0.57 0.65 0.76 0.86 0.91 1.01 1.12 1.14 1.06 1.02 1.01 0.95 0.88 0.86 0.83 0.83 0.85 0.84 0.80 0.72 0.73 0.82 0.87 0.94 1.05 1.12 1.12